DW3735 Weather Reports


Display with metric or nautical units.
time (UTC)temp
F
wind
direction
speed
MPH
gust
MPH
rain 1hr
in
rain 24hr
in
rain mn
in
humidity
%
barometer
mb
20240623072538 62 159 0.0 0.0 0.00 0.00 0.13 95 1005.8
20240623071538 62 159 0.0 0.0 0.00 0.00 0.11 95 1006.2
20240623070538 62 159 0.0 0.0 0.00 0.00 0.09 95 1006.7
20240623065538 62 159 0.0 0.0 0.00 0.00 0.06 95 1007.0
20240623064538 62 159 0.0 0.0 0.00 0.00 0.05 95 1007.3
20240623063538 62 159 0.0 2.0 0.00 0.00 0.05 95 1007.6
20240623062538 62 175 0.0 0.0 0.00 0.00 0.05 95 1007.6
20240623061538 62 175 0.0 0.0 0.00 0.00 0.04 96 1007.9
20240623060538 62 175 0.0 0.0 0.00 0.00 0.02 95 1008.1
20240623055538 62 175 0.0 0.0 0.00 0.00 0.02 95 1008.4
20240623054538 62 175 0.0 0.0 0.00 0.00 0.02 95 1008.6
20240623053538 62 175 0.0 0.0 0.00 0.00 0.01 95 1009.0
20240623052538 62 175 0.0 0.0 0.00 0.00 0.01 95 1009.2
20240623051538 62 175 0.0 0.0 0.00 0.00 0.01 95 1009.4
20240623050538 62 175 0.0 0.0 0.00 0.00 0.01 95 1009.6
20240623045538 62 175 0.0 0.0 0.00 0.00 0.01 95 1009.6
20240623044538 62 175 0.0 0.0 0.00 0.00 0.01 95 1009.6
20240623043538 62 175 0.0 0.0 0.00 0.00 0.01 95 1009.8
20240623042538 62 175 0.0 0.0 0.00 0.00 0.00 95 1010.1
20240623041538 62 175 0.0 0.0 0.00 0.00 0.00 95 1010.1
20240623040538 62 175 0.0 0.0 0.00 0.00 0.00 95 1010.0
20240623035538 62 175 0.0 0.0 0.00 0.00 0.17 94 1010.2
20240623034538 62 175 0.0 1.0 0.00 0.00 0.17 94 1010.1
20240623033538 62 175 0.0 0.0 0.00 0.00 0.17 94 1010.5
20240623032538 62 175 0.0 0.0 0.00 0.00 0.17 94 1010.9
20240623031538 62 176 0.0 0.0 0.00 0.00 0.16 94 1011.4
20240623030538 62 176 0.0 0.0 0.00 0.00 0.14 94 1011.6
20240623025538 62 176 0.0 0.0 0.00 0.00 0.13 93 1011.8
20240623024538 62 176 0.0 0.0 0.00 0.00 0.10 93 1011.9
20240623023538 62 176 0.0 0.0 0.00 0.00 0.07 93 1012.0
20240623022538 63 176 0.0 0.0 0.00 0.00 0.07 93 1012.1
20240623021538 63 176 0.0 0.0 0.00 0.00 0.06 93 1012.2
20240623020538 63 176 0.0 0.0 0.00 0.00 0.05 93 1012.3
20240623015538 63 176 0.0 0.0 0.00 0.00 0.05 93 1012.6
20240623014538 63 176 0.0 0.0 0.00 0.00 0.05 93 1012.7
20240623013538 63 176 0.0 0.0 0.00 0.00 0.05 92 1012.8
20240623012538 63 176 0.0 0.0 0.00 0.00 0.05 92 1012.9
20240623011538 63 176 0.0 0.0 0.00 0.00 0.05 91 1012.9
20240623010538 64 176 0.0 0.0 0.00 0.00 0.05 91 1012.9
20240623005538 63 176 0.0 0.0 0.00 0.00 0.05 89 1012.9
20240623004538 63 176 0.0 0.0 0.00 0.00 0.05 86 1012.9
20240623003538 64 176 0.0 0.0 0.00 0.00 0.04 85 1013.0
20240623002538 64 176 0.0 0.0 0.00 0.00 0.04 85 1013.0
20240623001538 64 176 0.0 0.0 0.00 0.00 0.04 85 1013.1
20240623000538 64 176 0.0 0.0 0.00 0.00 0.04 83 1013.2
20240622235538 65 176 0.0 0.0 0.00 0.00 0.04 82 1013.3
20240622234538 65 176 0.0 0.0 0.00 0.00 0.04 82 1013.2
20240622233538 66 176 0.0 0.0 0.00 0.00 0.04 82 1013.3
20240622232538 66 176 0.0 0.0 0.00 0.00 0.03 81 1013.5
20240622231538 66 176 0.0 0.0 0.00 0.00 0.03 81 1013.6
20240622230538 67 176 0.0 0.0 0.00 0.00 0.02 81 1013.6
20240622225538 67 176 0.0 0.0 0.00 0.00 0.02 80 1013.7
20240622224538 67 176 0.0 0.0 0.00 0.00 0.02 79 1013.6
20240622223538 69 176 0.0 0.0 0.00 0.00 0.02 78 1013.7
20240622222538 69 176 0.0 0.0 0.00 0.00 0.02 77 1013.7
20240622221538 69 176 0.0 0.0 0.00 0.00 0.02 76 1013.8
20240622220538 70 176 0.0 0.0 0.00 0.00 0.02 74 1013.9
20240622215538 70 176 0.0 0.0 0.00 0.00 0.02 73 1013.9
20240622214538 70 176 0.0 0.0 0.00 0.00 0.02 71 1014.0
20240622213538 70 176 0.0 0.0 0.00 0.00 0.02 72 1014.1
20240622212539 70 176 0.0 0.0 0.00 0.00 0.02 71 1014.2
20240622211538 70 176 0.0 0.0 0.00 0.00 0.02 71 1014.3
20240622210538 70 176 0.0 0.0 0.00 0.00 0.02 70 1014.5
20240622205538 70 176 0.0 0.0 0.00 0.00 0.02 69 1014.7
20240622204538 70 176 0.0 0.0 0.00 0.00 0.02 69 1014.7
20240622203538 71 176 0.0 0.0 0.00 0.00 0.02 71 1014.7
20240622202538 71 176 0.0 0.0 0.00 0.00 0.02 71 1014.8
20240622201538 71 176 0.0 0.0 0.00 0.00 0.02 70 1014.8
20240622200538 71 176 0.0 0.0 0.00 0.00 0.02 72 1015.0
20240622195538 71 176 0.0 0.0 0.00 0.00 0.02 71 1015.2
20240622194538 71 176 0.0 0.0 0.00 0.00 0.02 72 1015.2
20240622193538 71 176 0.0 0.0 0.00 0.00 0.02 71 1015.4
20240622192538 71 176 0.0 0.0 0.00 0.00 0.02 71 1015.4
20240622191538 72 175 0.0 0.0 0.00 0.00 0.02 69 1015.5
20240622190538 72 175 0.0 0.0 0.00 0.00 0.02 70 1015.7
20240622185538 72 175 0.0 0.0 0.00 0.00 0.02 71 1015.7
20240622184538 72 175 0.0 0.0 0.00 0.00 0.02 68 1015.8
20240622183538 72 175 0.0 0.0 0.00 0.00 0.02 68 1016.0
20240622182538 72 175 0.0 0.0 0.00 0.00 0.02 69 1016.0
20240622181538 72 175 0.0 0.0 0.00 0.00 0.02 70 1016.0
20240622180538 72 175 0.0 0.0 0.00 0.00 0.02 69 1016.0
20240622175538 72 175 0.0 0.0 0.00 0.00 0.02 64 1016.2
20240622174538 72 175 0.0 0.0 0.00 0.00 0.02 65 1016.4
20240622173538 72 168 0.0 0.0 0.00 0.00 0.02 60 1016.4
20240622172538 72 183 0.0 0.0 0.00 0.00 0.02 65 1016.6
20240622171538 71 92 0.0 0.0 0.00 0.00 0.02 71 1016.5
20240622170538 71 92 0.0 0.0 0.00 0.00 0.02 73 1016.5
20240622165538 70 92 0.0 0.0 0.00 0.00 0.02 72 1016.5
20240622164538 70 92 0.0 0.0 0.00 0.00 0.02 71 1016.7
20240622163538 69 92 0.0 0.0 0.00 0.00 0.02 76 1016.8
20240622162538 68 92 0.0 0.0 0.00 0.00 0.01 72 1017.0
20240622161538 68 92 0.0 0.0 0.00 0.00 0.01 75 1017.0
20240622160538 67 91 0.0 0.0 0.00 0.00 0.01 77 1017.2
20240622155539 66 91 0.0 0.0 0.00 0.00 0.01 79 1017.0
20240622154538 66 91 0.0 0.0 0.00 0.00 0.01 78 1017.2
20240622153538 66 91 0.0 0.0 0.00 0.00 0.01 80 1017.4
20240622152538 66 91 0.0 0.0 0.00 0.00 0.01 81 1017.2
20240622151538 65 91 0.0 0.0 0.00 0.00 0.01 82 1017.1
20240622150537 65 91 0.0 0.0 0.00 0.00 0.01 81 1017.1
20240622145538 65 91 0.0 0.0 0.00 0.00 0.01 81 1017.1
20240622144538 65 91 0.0 0.0 0.00 0.00 0.01 81 1017.2
20240622143538 65 91 0.0 0.0 0.00 0.00 0.01 82 1017.5
20240622142538 65 91 0.0 0.0 0.00 0.00 0.01 81 1017.5
20240622141537 65 91 0.0 0.0 0.00 0.00 0.01 81 1017.5
20240622140538 65 91 0.0 0.0 0.00 0.00 0.01 84 1017.7
20240622135537 64 91 0.0 0.0 0.00 0.00 0.01 83 1018.0
20240622134538 64 91 0.0 0.0 0.00 0.00 0.01 85 1018.1
20240622133537 64 91 0.0 0.0 0.00 0.00 0.01 87 1018.0
20240622132537 64 91 0.0 0.0 0.00 0.00 0.01 88 1018.2
20240622131537 63 91 0.0 0.0 0.00 0.00 0.01 88 1018.3
20240622130538 63 91 0.0 0.0 0.00 0.00 0.01 91 1018.3
20240622125538 63 91 0.0 0.0 0.00 0.00 0.00 92 1018.3
20240622124538 63 91 0.0 0.0 0.00 0.00 0.00 91 1018.0
20240622123537 63 91 0.0 0.0 0.00 0.00 0.00 93 1017.8
20240622122538 63 91 0.0 0.0 0.00 0.00 0.00 93 1017.6
20240622121537 63 91 0.0 0.0 0.00 0.00 0.00 93 1017.7
20240622120538 63 91 0.0 0.0 0.00 0.00 0.00 93 1017.8
20240622115537 62 91 0.0 0.0 0.00 0.00 0.00 93 1017.9
20240622114538 62 91 0.0 0.0 0.00 0.00 0.00 93 1018.1
20240622113537 62 91 0.0 0.0 0.00 0.00 0.00 93 1018.0
20240622112538 62 91 0.0 0.0 0.00 0.00 0.00 93 1018.2
20240622111537 61 91 0.0 0.0 0.00 0.00 0.00 93 1018.3
20240622110537 61 91 0.0 0.0 0.00 0.00 0.00 93 1018.2
20240622105537 61 91 0.0 0.0 0.00 0.00 0.00 93 1018.3
20240622104537 61 91 0.0 0.0 0.00 0.00 0.00 93 1018.5
20240622103537 61 91 0.0 0.0 0.00 0.00 0.00 93 1018.3
20240622102538 61 91 0.0 0.0 0.00 0.00 0.00 93 1018.3
20240622101537 61 91 0.0 0.0 0.00 0.00 0.00 93 1018.1
20240622100537 61 91 0.0 0.0 0.00 0.00 0.00 93 1017.9
20240622095538 61 91 0.0 0.0 0.00 0.00 0.00 92 1018.0
20240622094537 61 91 0.0 0.0 0.00 0.00 0.00 91 1018.2
20240622093537 61 91 0.0 0.0 0.00 0.00 0.00 91 1018.1
20240622092537 61 91 0.0 0.0 0.00 0.00 0.00 90 1018.0
20240622091537 61 91 0.0 0.0 0.00 0.00 0.00 88 1018.2
20240622090538 61 91 0.0 0.0 0.00 0.00 0.00 88 1018.4
20240622085537 61 91 0.0 0.0 0.00 0.00 0.00 88 1018.3
20240622084537 61 91 0.0 0.0 0.00 0.00 0.00 87 1018.4
20240622083537 61 91 0.0 0.0 0.00 0.00 0.00 86 1018.6
20240622082537 61 91 0.0 0.0 0.00 0.00 0.00 85 1018.6
20240622081537 61 91 0.0 0.0 0.00 0.00 0.00 85 1018.4
20240622080537 61 91 0.0 0.0 0.00 0.00 0.00 85 1018.5
20240622075537 61 91 0.0 0.0 0.00 0.00 0.00 85 1018.5
20240622074538 61 91 0.0 0.0 0.00 0.00 0.00 84 1018.4
20240622073537 61 91 0.0 0.0 0.00 0.00 0.00 84 1018.3